{"data":{"norad_id":64016,"epoch":"2026-05-25T02:19:00.535008Z","epoch_age_seconds":76871,"freshness":"FRESH","line1":"1 64016U 25101Y   26145.09653397  .00008595  00000+0  32132-3 0  9996","line2":"2 64016  43.0014 286.1911 0000569 328.4543  31.6275 15.27596668 58741","mean_motion":15.27596668,"eccentricity":5.69e-5,"inclination_deg":43.0014,"raan_deg":286.1911,"arg_perigee_deg":328.4543,"mean_anomaly_deg":31.6275,"bstar":0.00032132,"rev_number":5874,"period_min":94.26572014492,"perigee_km":482.60878785618,"apogee_km":483.3895851542,"semimajor_km":6861.1361865052,"source":"CELESTRAK","updated_at":"2026-05-25T13:38:20.222526Z"}}